Location: Dompnac
(44.5644°N, 4.1026°E)
Time: 10:59:22
(UTC+00:00)

Spot 2 Rocket - Pass Details

Date: 19 September 2020
Orbit: 758 x 771 km, 98.6° (Epoch: 29 October)

Event Time Altitude Azimuth Distance (km) Brightness Sun altitude
Exits shadow 20:51:05 41° 353° (N) 1,097 4.5 -31.4°
Drops below altitude 10° 20:54:20 10° 348° (NNW) 2,298 6.5 -31.8°
Sets 20:56:38 0° 348° (NNW) 3,227 7.4 -32.1°
